x

Silver Bay, Mn (slvm5) Weather Station

2:40am - Sat 31st Jan 2015 All times are CST. -6 hours from GMT.

  • Wind
    7mph, 8mph gusts
  • Air Temp 20°f
  • Sea Pressure 1019.6mb
  • Silver Bay, Mn
  • Silver Bay, Mn

More Historic Weather Station data

Upgrade to MSW Pro to gain access to the past 30 days of data for over 8000 Wavebouys and Weather Stations around the globe.

Join Pro

Comparision Forecast

View Surf forecast
   
Sat 01/31 2:40am 7 8 mph 1019.6mb 20f
2:30am 3 8 mph 1019.6mb 20f
2:20am 3 8 mph 1020mb 20f
2:10am 3 8 mph 1020mb 20f
2:00am  -  8 mph 1020mb 20f
1:40am  -  5 mph 1019.6mb 19f
1:30am  -  5 mph 1019.6mb 19f
1:20am  -  3 mph 1019.6mb 19f
1:10am 2 6 mph 1019.6mb 19f
1:00am 3 8 mph 1020mb 19f
12:40am 8 10 mph 1020.3mb 19f
12:30am 9 11 mph 1020.3mb 19f
12:20am 9 11 mph 1020.3mb 19f
12:10am 9 14 mph 1020.3mb 19f
12:00am 8 13 mph 1020.7mb 19f
Fri 01/30 11:40pm 8 10 mph 1021mb 19f
11:30pm 6 10 mph 1021mb 19f
11:20pm 7 10 mph 1021mb 19f
11:10pm 7 10 mph 1021.3mb 18f
11:00pm 6 8 mph 1021.3mb 18f
10:40pm 6 9 mph 1021.7mb 18f
10:30pm 6 10 mph 1021.7mb 18f
10:20pm 5 8 mph 1021.7mb 18f
10:10pm 7 9 mph 1022mb 18f
10:00pm 7 10 mph 1022mb 18f
9:40pm 10 13 mph 1022.4mb 19f
9:30pm 10 14 mph 1022.4mb 19f
9:20pm 10 17 mph 1022.7mb 19f
9:10pm 11 15 mph 1022.7mb 19f
9:00pm 10 15 mph 1022.7mb 18f
8:40pm 13 16 mph 1022.7mb 18f
8:30pm 9 15 mph 1023mb 18f
8:20pm 13 15 mph 1023mb 19f
8:10pm 10 15 mph 1023mb 19f
8:00pm 10 13 mph 1023mb 19f
7:40pm 7 14 mph 1023mb 19f
7:30pm 7 10 mph 1023.4mb 19f
7:20pm 8 18 mph 1023.4mb 20f
7:10pm 15 17 mph 1023.4mb 20f
7:00pm 3 9 mph 1023.4mb 18f
6:40pm  -  5 mph 1023.7mb 17f
6:30pm 2 6 mph 1023.7mb 17f
6:20pm  -  6 mph 1024mb 17f
6:10pm 2 5 mph 1024.4mb 16f
6:00pm 2 7 mph 1024.4mb 17f
5:40pm 6 8 mph 1024.7mb 17f
5:30pm 6 9 mph 1024.7mb 17f
5:20pm 6 10 mph 1025.1mb 17f
5:10pm 7 11 mph 1025.1mb 17f
5:00pm 9 14 mph 1025.4mb 17f
4:40pm 10 15 mph 1025.7mb 17f
4:30pm 9 13 mph 1025.7mb 17f
4:20pm 10 13 mph 1025.7mb 17f
4:10pm 9 15 mph 1026.1mb 17f
4:00pm 10 13 mph 1026.1mb 17f
3:40pm 10 14 mph 1026.8mb 16f
3:30pm 11 15 mph 1026.8mb 15f
3:20pm 10 13 mph 1027.1mb 16f
3:10pm 8 15 mph 1027.1mb 16f
3:00pm 11 14 mph 1027.4mb 16f
2:40pm 11 15 mph 1027.4mb 16f
2:30pm 9 15 mph 1027.8mb 17f
2:20pm 10 15 mph 1027.8mb 16f
2:10pm 11 15 mph 1028.1mb 16f
2:00pm 7 13 mph 1028.1mb 16f
1:40pm 9 13 mph 1028.4mb 15f
1:30pm 8 11 mph 1028.8mb 15f
1:20pm 7 11 mph 1028.8mb 15f
1:10pm 9 10 mph 1029.1mb 15f
1:00pm 9 13 mph 1029.5mb 15f
12:40pm 10 15 mph 1029.8mb 14f
12:30pm 11 14 mph 1030.1mb 14f
12:20pm 8 10 mph 1030.1mb 14f
12:10pm 3 9 mph 1030.1mb 13f
12:00pm 5 8 mph 1030.5mb 13f
11:40am 5 7 mph 1030.5mb 13f
11:30am 6 7 mph 1030.8mb 12f
11:20am 6 8 mph 1030.8mb 12f
11:10am 3 7 mph 1031.2mb 11f
11:00am 6 7 mph 1031.5mb 11f
10:40am 5 7 mph 1031.8mb 11f
10:30am  -  6 mph 1032.2mb 11f
10:20am 3 6 mph 1032.2mb 10f
10:10am 5 8 mph 1032.2mb 10f
10:00am 5 8 mph 1032.2mb 10f
9:40am 5 8 mph 1032.2mb 10f
9:30am 5 8 mph 1032.2mb 11f
9:20am 5 7 mph 1031.8mb 10f
9:10am 3 6 mph 1032.2mb 10f
9:00am 3 8 mph 1032.2mb 9f
8:40am 2 6 mph 1032.5mb 9f
8:30am 3 7 mph 1032.5mb 7f
8:20am 5 8 mph 1032.5mb 6f
8:10am 7 10 mph 1032.8mb 6f
8:00am 7 9 mph 1032.8mb 6f
7:40am 3 10 mph 1032.5mb 6f
7:30am 5 7 mph 1032.5mb 6f
7:20am 2 10 mph 1032.5mb 6f
7:10am 3 11 mph 1032.5mb 6f
7:00am 8 14 mph 1032.5mb 6f
6:40am 8 14 mph 1032.5mb 6f
6:30am 9 13 mph 1032.5mb 6f
6:20am 8 11 mph 1032.2mb 6f
6:10am 9 14 mph 1032.5mb 6f
6:00am 7 13 mph 1032.2mb 6f
5:40am 8 13 mph 1032.2mb 6f
5:30am 8 15 mph 1032.5mb 6f
5:20am 8 15 mph 1032.5mb 6f
5:10am 10 15 mph 1032.5mb 6f
5:00am 6 15 mph 1032.5mb 6f
4:40am 5 10 mph 1032.8mb 6f
4:30am  -  9 mph 1032.8mb 6f
4:20am 7 11 mph 1032.8mb 6f
4:10am 9 15 mph 1033.2mb 7f
4:00am 7 14 mph 1032.8mb 7f
3:40am  -  5 mph 1033.2mb 6f
3:30am  -  3 mph 1033.2mb 6f
3:20am 2 5 mph 1033.2mb 7f
3:10am 2 5 mph 1033.2mb 7f
3:00am  -  5 mph 1033.2mb 7f
2:50am  -  6 mph 1033.2mb 8f
2:40am 2 9 mph 1033.2mb 8f
2:30am 5 6 mph 1033.2mb 8f
2:20am 3 6 mph 1033.2mb 8f
2:10am 3
mph
1033.2mb 8f
2:00am  -  3 mph 1033.2mb 8f
1:50am  -  3 mph 1033.2mb 8f
1:40am  -  5 mph 1032.8mb 9f
1:30am  -  8 mph 1033.2mb 9f
1:20am 6 8 mph 1032.8mb 9f
1:10am 5 9 mph 1033.2mb 10f
1:00am 6 11 mph 1032.8mb 10f
12:50am 7 10 mph 1032.8mb 10f
12:40am 5 8 mph 1032.8mb 10f
12:30am 6 8 mph 1032.8mb 10f
12:20am 3 7 mph 1032.8mb 10f
12:10am 3 8 mph 1032.8mb 10f
12:00am 3 6 mph 1032.8mb 10f
Thu 01/29 11:50pm 3 7 mph 1032.8mb 11f
11:40pm 6 8 mph 1032.8mb 10f
11:30pm 6 10 mph 1032.8mb 10f
11:20pm 6 13 mph 1032.8mb 11f
11:10pm 8 13 mph 1032.5mb 11f
11:00pm 7 11 mph 1032.5mb 12f
10:50pm 2 9 mph 1032.5mb 11f
10:40pm 7 14 mph 1032.5mb 11f
10:30pm 7 13 mph 1032.2mb 12f
10:20pm 6 17 mph 1032.2mb 12f
10:10pm 10 13 mph 1032.2mb 12f
10:00pm 8 11 mph 1032.2mb 13f
9:50pm 9 15 mph 1031.8mb 13f
9:40pm 7 13 mph 1031.8mb 13f
9:30pm 6 16 mph 1031.8mb 13f
9:20pm 13 21 mph 1031.8mb 13f
9:10pm 18 25 mph 1031.8mb 13f
9:00pm 13 18 mph 1031.5mb 13f
8:40pm 9 15 mph 1031.5mb 13f
8:30pm 10 17 mph 1031.2mb 13f
8:20pm 8 17 mph 1030.8mb 14f
8:10pm 11 18 mph 1030.8mb 14f
8:00pm 9 16 mph 1030.8mb 15f
7:50pm 9 14 mph 1030.5mb 15f
7:40pm 8 18 mph 1030.5mb 15f
7:30pm 8 18 mph 1030.1mb 16f
7:20pm 8 17 mph 1030.1mb 16f
7:10pm 7 14 mph 1029.8mb 16f
7:00pm 7 9 mph 1029.8mb 16f
6:50pm 5 10 mph 1029.5mb 16f
6:40pm 3 16 mph 1029.1mb 16f
6:30pm 7 21 mph 1028.8mb 17f
6:20pm 10 22 mph 1028.8mb 17f
6:10pm 3 16 mph 1028.8mb 17f
6:00pm 7 13 mph 1028.4mb 17f
5:50pm 5 10 mph 1027.8mb 17f
5:40pm 6 11 mph 1027.8mb 17f
5:30pm 6 11 mph 1027.4mb 17f
5:20pm 9 18 mph 1027.4mb 18f
5:10pm 11 20 mph 1027.1mb 18f
5:00pm 13 23 mph 1026.8mb 18f
4:50pm 13 18 mph 1026.4mb 19f
4:40pm 11 20 mph 1026.1mb 19f
4:30pm 11 24 mph 1025.7mb 19f
4:20pm 16 22 mph 1025.4mb 20f
4:10pm 13 26 mph 1025.4mb 20f
4:00pm 16 28 mph 1025.1mb 20f
3:50pm 14 24 mph 1024.7mb 20f
3:40pm 9 22 mph 1024.7mb 21f
3:30pm 17 24 mph 1024.4mb 21f
3:20pm 15 25 mph 1024mb 21f
3:10pm 10 21 mph 1024mb 22f
3:00pm 13 21 mph 1023.7mb 22f
2:50pm 8 23 mph 1023.7mb 22f
2:40pm 11 24 mph 1023.4mb 22f
2:30pm 17 28 mph 1023mb 23f
2:20pm 14 21 mph 1023mb 24f
2:10pm 16 25 mph 1022.7mb 24f
2:00pm 11 22 mph 1022.7mb 24f
1:50pm 15 24 mph 1022.4mb 24f
1:40pm 17 24 mph 1022mb 24f
1:30pm 17 25 mph 1022mb 24f
1:20pm 9 17 mph 1022mb 25f
1:10pm 14 29 mph 1022mb 25f
1:00pm 9 21 mph 1022mb 25f
12:50pm 16 22 mph 1022mb 24f
12:40pm 13 22 mph 1022mb 24f
12:30pm 15 26 mph 1021.7mb 24f
12:20pm 13 18 mph 1021.3mb 25f
12:10pm 9 21 mph 1021.3mb 25f
12:00pm 16 23 mph 1021mb 25f
11:50am 14 23 mph 1021mb 25f
11:40am 17 28 mph 1020.7mb 25f
11:30am 13 25 mph 1020.7mb 25f
11:20am 13 22 mph 1020.7mb 24f
11:10am 17 31 mph 1020.3mb 25f
11:00am 8 21 mph 1020mb 26f
10:50am 9 21 mph 1019.6mb 26f
10:40am 14 22 mph 1019.6mb 26f
10:30am 11 20 mph 1019.6mb 26f
10:20am 9 18 mph 1019.3mb 26f
10:10am 11 20 mph 1019mb 26f
10:00am 10 22 mph 1019mb 26f
9:50am 9 22 mph 1018.6mb 26f
9:40am 14 23 mph 1018.3mb 26f
9:30am 16 24 mph 1018.3mb 26f
9:20am 11 22 mph 1017.9mb 26f
9:10am 14 21 mph 1017.9mb 26f
9:00am 13 23 mph 1017.6mb 26f
8:50am 9 23 mph 1017.6mb 27f
8:40am 15 23 mph 1017.6mb 27f
8:30am 10 26 mph 1017.3mb 27f
8:20am 15 22 mph 1016.9mb 27f
8:10am 10 22 mph 1016.6mb 27f
8:00am 10 22 mph 1016.3mb 28f
7:50am 15 25 mph 1016.3mb 28f
7:40am 10 21 mph 1015.9mb 28f
7:30am 9 15 mph 1015.6mb 29f
7:20am 8 15 mph 1015.2mb 29f
7:10am 13 17 mph 1014.9mb 29f
7:00am 8 25 mph 1014.9mb 30f
6:50am 16 28 mph 1014.6mb 30f
6:40am 1 11 mph 1014.2mb 30f
6:30am 3 8 mph 1014.2mb 30f
6:20am 8 11 mph 1013.9mb 30f
6:10am 5 11 mph 1013.5mb 30f
6:00am 3 16 mph 1013.5mb 30f
5:50am 10 25 mph 1013.2mb 31f
5:40am 18 28 mph 1012.9mb 31f
5:30am 8 20 mph 1012.5mb 30f
5:20am 3 24 mph 1012.5mb 31f
5:10am 10 21 mph 1012.5mb 31f
5:00am 9 29 mph 1012.5mb 31f
4:50am 18 31 mph 1012.2mb 31f
4:40am 21 32 mph 1012.2mb 31f
4:30am 6 16 mph 1011.9mb 31f
4:20am 13 22 mph 1011.9mb 31f
4:10am 13 20 mph 1011.5mb 31f
4:00am 3 16 mph 1011.5mb 31f
3:50am 10 23 mph 1011.5mb 31f
3:40am 15 25 mph 1011.2mb 31f
3:30am 10 25 mph 1010.8mb 32f
3:20am 6 20 mph 1010.8mb 32f
3:10am 6 17 mph 1010.8mb 32f
3:00am 9 15 mph 1010.5mb 32f
2:50am 6 13 mph 1010.5mb 32f
2:40am 11 15 mph 1010.5mb 32f
2:30am 3 13 mph 1010.2mb 32f
2:20am 5 13 mph 1010.2mb 32f
2:10am 3 13 mph 1010.2mb 32f
2:00am 2 11 mph 1010.2mb 32f
1:50am 7 13 mph 1010.2mb 32f
1:40am 5 11 mph 1010.2mb 31f
1:30am 1 7 mph 1009.8mb 31f
1:20am  -  5 mph 1009.8mb 31f
1:10am  -  mph 1009.8mb 30f
1:00am  -  6 mph 1009.8mb 30f
12:50am 5 7 mph 1009.8mb 30f
12:40am 5 8 mph 1009.8mb 30f
12:30am 7 8 mph 1009.8mb 30f
12:20am 6 8 mph 1009.8mb 30f
12:10am 7 8 mph 1010.2mb 30f
12:00am 7 8 mph 1010.2mb 30f
Wed 01/28 11:50pm 6 8 mph 1009.8mb 30f
11:40pm 6 8 mph 1010.2mb 30f
11:30pm 7 8 mph 1010.2mb 29f
11:20pm 7 10 mph 1010.2mb 30f
11:10pm 7 9 mph 1010.2mb 30f
11:00pm 2 9 mph 1010.2mb 30f
10:40pm 6 8 mph 1010.2mb 30f
10:30pm 6 8 mph 1010.2mb 30f
10:20pm 7 9 mph 1010.2mb 29f
10:10pm 7 9 mph 1010.2mb 29f
10:00pm 7 8 mph 1010.2mb 29f
9:50pm 5 7 mph 1010.2mb 29f
9:40pm 3 7 mph 1010.2mb 29f
9:30pm 3 6 mph 1010.2mb 29f
9:20pm 3 6 mph 1010.2mb 29f
9:10pm 3 6 mph 1010.5mb 29f
9:00pm 5 6 mph 1010.5mb 29f
8:50pm  -  mph 1010.5mb 29f
8:40pm  -  mph 1010.8mb 29f
8:30pm  -  mph 1010.8mb 29f
8:20pm  -  mph 1010.8mb 29f
8:10pm  -  mph 1010.8mb 29f
8:00pm  -  mph 1010.8mb 29f
7:50pm  -  mph 1010.8mb 29f
7:40pm  -  mph 1010.8mb 29f
7:30pm  -  mph 1010.8mb 29f
7:20pm  -  mph 1010.8mb 29f
7:10pm  -  mph 1010.8mb 29f
7:00pm  -  mph 1010.8mb 29f
6:50pm  -  mph 1010.8mb 29f
6:40pm  -  mph 1010.8mb 30f
6:30pm  -  mph 1010.8mb 30f
6:20pm  -  5 mph 1010.8mb 30f
6:10pm 5 6 mph 1010.8mb 29f
6:00pm 5 7 mph 1010.8mb 30f
5:50pm 6 8 mph 1010.8mb 30f
5:40pm 7
mph
1010.8mb 29f
5:30pm  -  mph 1010.8mb 29f
5:20pm  -  mph 1010.8mb 29f
5:10pm  -  mph 1010.8mb 29f
5:00pm  -  mph 1010.8mb 29f
4:50pm  -  mph 1010.8mb 29f
4:40pm  -  5 mph 1010.8mb 29f
4:30pm 2 5 mph 1010.8mb 29f
4:20pm  -  5 mph 1010.8mb 30f
4:10pm 3 5 mph 1010.8mb 30f
4:00pm  -  5 mph 1010.8mb 30f
3:50pm 3 5 mph 1010.8mb 30f
3:40pm 2 5 mph 1011.2mb 30f
3:30pm 5 7 mph 1011.2mb 29f
3:20pm 5 8 mph 1011.2mb 29f
3:10pm 3 7 mph 1011.2mb 29f
3:00pm 5 6 mph 1011.5mb 29f
2:50pm 3 7 mph 1011.5mb 29f
2:40pm 5 7 mph 1011.5mb 29f
2:30pm 6 7 mph 1011.9mb 29f
2:20pm 3 7 mph 1011.9mb 29f
2:10pm 6 7 mph 1012.2mb 29f
2:00pm 6 7 mph 1012.2mb 29f
1:50pm 3 7 mph 1012.2mb 29f
1:40pm 2 6 mph 1012.5mb 29f
1:30pm 3 7 mph 1012.9mb 29f
1:20pm 5 7 mph 1012.9mb 28f
1:10pm 5 7 mph 1013.2mb 28f
1:00pm 6 7 mph 1013.5mb 28f
12:50pm 5 7 mph 1013.5mb 28f
12:40pm 6 7 mph 1013.5mb 28f
12:30pm 3 7 mph 1013.9mb 28f
12:20pm 5 8 mph 1014.2mb 28f
12:10pm 5 9 mph 1014.2mb 28f
12:00pm 7 8 mph 1014.6mb 28f
11:50am 5 9 mph 1014.9mb 28f
11:40am 6 9 mph 1015.2mb 28f
11:30am 6 7 mph 1015.2mb 28f
11:20am 5 8 mph 1015.2mb 28f
11:10am 5 8 mph 1015.6mb 28f
11:00am 6 8 mph 1015.6mb 28f
10:50am 6 8 mph 1015.9mb 28f
10:40am 7 9 mph 1015.9mb 28f
10:30am 7 8 mph 1016.3mb 28f
10:20am 6 7 mph 1016.3mb 28f
10:10am 6 7 mph 1016.3mb 28f
10:00am 5 6 mph 1016.3mb 28f
9:50am 3 7 mph 1016.6mb 28f
9:40am 6 7 mph 1016.6mb 28f
9:30am 6 8 mph 1016.6mb 28f
9:20am 7 9 mph 1016.6mb 28f
9:10am 7 9 mph 1016.6mb 28f
9:00am 7 10 mph 1016.6mb 28f
8:50am 10
mph
1016.6mb 28f
8:40am 9 11 mph 1016.6mb 28f
8:30am 9 10 mph 1016.9mb 29f
8:20am 9 11 mph 1016.9mb 29f
8:10am 9 11 mph 1016.9mb 29f
8:00am 9 13 mph 1017.3mb 29f
7:50am 9 11 mph 1017.3mb 29f
7:40am 10 13 mph 1017.3mb 29f
7:30am 9 11 mph 1017.3mb 29f
7:20am 9 11 mph 1017.3mb 29f
7:10am 9 10 mph 1017.3mb 29f
7:00am 7 9 mph 1017.6mb 29f
6:50am 6 10 mph 1017.9mb 29f
6:40am 8 11 mph 1017.9mb 29f
6:30am 8 13 mph 1017.9mb 29f
6:20am 8 11 mph 1017.9mb 29f
6:10am 8 11 mph 1018.3mb 29f
6:00am 10 13 mph 1018.3mb 29f
5:50am 11 14 mph 1017.9mb 29f
5:40am 10 13 mph 1017.9mb 30f
5:30am 11 13 mph 1018.3mb 30f
5:20am 10 14 mph 1018.3mb 30f
5:10am 13 14 mph 1018.3mb 30f
5:00am 11 13 mph 1018.3mb 30f
4:50am 11 14 mph 1018.6mb 30f
4:40am 10 13 mph 1018.6mb 30f
4:30am 11 14 mph 1018.6mb 30f
4:20am 11 14 mph 1018.6mb 30f
4:10am 11 16 mph 1018.6mb 30f
4:00am 14 17 mph 1019mb 30f
3:50am 15 17 mph 1019mb 30f
3:40am 15 16 mph 1019mb 30f
3:30am 14 17 mph 1019mb 30f
3:20am 14 17 mph 1019mb 30f
3:10am 15 17 mph 1019mb 31f
3:00am 14 17 mph 1019mb 30f
2:50am 15 17 mph 1019mb 30f
2:40am 16 20 mph 1019.3mb 31f
2:30am 17 20 mph 1019.3mb 31f
2:20am 17 18 mph 1019.3mb 31f
2:10am 13 18 mph 1019.3mb 31f
2:00am 11 18 mph 1019.3mb 31f
1:50am 15 20 mph 1019.3mb 31f
1:40am 15 18 mph 1019.3mb 31f
1:30am 15 20 mph 1019.3mb 31f
1:20am 14 20 mph 1019.3mb 31f
1:10am 16 18 mph 1019.6mb 31f
1:00am 15 16 mph 1019.6mb 31f
12:50am 13 15 mph 1019.6mb 31f
12:40am 13 15 mph 1019.6mb 31f
12:30am 13 16 mph 1019.6mb 31f
12:20am 14 16 mph 1019.6mb 31f
12:10am 13 16 mph 1019.6mb 31f
12:00am 13 16 mph 1019.6mb 31f
Tue 01/27 11:50pm 13 15 mph 1020mb 31f
11:40pm 13 15 mph 1020mb 31f
11:30pm 11 14 mph 1020mb 31f
11:20pm 13 15 mph 1020.3mb 31f
11:10pm 10 15 mph 1020.3mb 31f
11:00pm 13 14 mph 1020.3mb 31f
10:50pm 9 14 mph 1020.3mb 31f
10:40pm 8 13 mph 1020.3mb 30f
10:30pm 10 15 mph 1020.7mb 31f
10:20pm 8 13 mph 1020.7mb 31f
10:10pm 10 14 mph 1020.7mb 31f
10:00pm 10 14 mph 1020.7mb 31f
9:50pm 11 14 mph 1020.7mb 31f
9:40pm 11 15 mph 1020.7mb 31f
9:30pm 11 13 mph 1020.7mb 31f
9:20pm 10 14 mph 1020.3mb 31f
9:10pm 10 14 mph 1020.7mb 31f
9:00pm 8 16 mph 1020.7mb 31f
8:50pm 15 17 mph 1020.7mb 31f
8:40pm 16 17 mph 1020.7mb 31f
8:30pm 15 18 mph 1020.7mb 31f
8:20pm 16 17 mph 1020.3mb 31f
8:10pm 15 17 mph 1020.3mb 31f
8:00pm 14 16 mph 1020.7mb 31f
7:50pm 14 15 mph 1021mb 31f
7:40pm 13 15 mph 1021mb 31f
7:30pm 11 14 mph 1021mb 31f
7:20pm 10 13 mph 1021mb 31f
7:10pm 11 14 mph 1021mb 31f
7:00pm 9 11 mph 1021mb 31f
6:50pm 9 13 mph 1021mb 31f
6:40pm 9 11 mph 1020.7mb 31f
6:30pm 8 10 mph 1021mb 31f
6:20pm 7 11 mph 1021mb 31f
6:10pm 8 9 mph 1020.7mb 31f
6:00pm  -  mph 1021.3mb 30f
5:50pm  -  5 mph 1021mb 30f
5:40pm  -  3 mph 1021.3mb 30f
5:30pm 3 7 mph 1021.3mb 30f
5:20pm 6 13 mph 1021.3mb 30f
5:10pm 9 13 mph 1021.3mb 30f
5:00pm 8 11 mph 1021.3mb 30f
4:50pm 9 11 mph 1021.3mb 30f
4:40pm 9 14 mph 1021.3mb 30f
4:30pm 11 15 mph 1021.3mb 30f
4:20pm 11 14 mph 1021.3mb 30f
4:10pm 11 15 mph 1021mb 31f
4:00pm 13 15 mph 1021mb 30f
3:50pm 13 15 mph 1021mb 30f
3:40pm 11 14 mph 1021mb 30f
3:30pm 13 15 mph 1021mb 30f
3:20pm 11 14 mph 1021mb 30f
3:10pm 11 14 mph 1021mb 30f
3:00pm 11 14 mph 1021mb 30f
2:50pm 13 14 mph 1021mb 30f
2:40pm 11 14 mph 1021mb 30f
2:30pm 11 14 mph 1021mb 30f
2:20pm  -  mph 1021mb 30f
2:10pm  -  mph 1021mb 30f
2:00pm  -  mph 1021mb 30f
1:50pm  -  mph 1021mb 30f
1:40pm  -  mph 1021mb 30f
1:30pm  -  mph 1021.3mb 30f
1:20pm  -  mph 1021.3mb 30f
1:10pm  -  mph 1021.3mb 30f
1:00pm  -  mph 1021.3mb 30f
12:50pm  -  mph 1021.7mb 30f
12:40pm  -  mph 1021.7mb 29f
12:30pm  -  mph 1022mb 29f
12:20pm  -  mph 1022mb 29f
12:10pm  -  mph 1022mb 29f
12:00pm  -  mph 1022mb 29f
11:50am  -  mph 1021.7mb 29f
11:40am  -  mph 1022mb 29f
11:30am  -  mph 1021.7mb 29f
11:20am  -  mph 1021.7mb 29f
11:10am  -  mph 1021.3mb 29f
11:00am  -  mph 1021.3mb 29f
10:50am  -  mph 1021.3mb 29f
10:40am  -  mph 1021.3mb 29f
10:30am  -  mph 1021.3mb 29f
10:20am  -  mph 1021.3mb 30f
10:10am  -  mph 1021.3mb 30f
10:00am  -  mph 1021.3mb 29f
9:50am  -  mph 1021.3mb 29f
9:40am  -  mph 1021mb 29f